Location: Warszawa
(52.2500°N, 21.0000°E)
Time: 23:39:18
(UTC+02:00)

AO-27 - Pass Details

Date: 23 April 2024
Orbit: 783 x 797 km, 98.8° (Epoch: 26 May)

Event Time Altitude Azimuth Distance (km) Brightness Sun altitude
Exits shadow 22:17:33 - 211° (SSW) 3,260 10.6 -18.5°
Reaches altitude 10° 22:20:33 10° 230° (SW) 2,367 10.1 -18.8°
Maximum altitude 22:24:02 18° 272° (W) 1,885 10.0 -19.0°
Drops below altitude 10° 22:27:32 10° 314° (NW) 2,379 11.3 -19.3°
Sets 22:30:40 0° 333° (NNW) 3,314 12.5 -19.6°
